INSAT-3A

Last updated on Mon Sep 04 2017 00:17:58 GMT+0000 (Coordinated Universal Time)

1 27714U 03013A 17246.48799169 -.00000291 00000-0 00000-0 0 9994 2 27714 1.3161 87.6291 0011835 227.6801 157.4895 0.99808606 52701

Satellite not in orbit

INSAT-3A